Location: PSU-Greenbush Astrophysical Observatory
(37.5140°N, 94.9880°W)
Time: 18:56:43
(UTC-06:00)

deb Explorer IX - Pass Details

Date: 29 January 2020
Orbit: 549 x 1099 km, 38.8° (Epoch: 20 February)

Event Time Altitude Azimuth Distance (km) Brightness Sun altitude
Rises 18:37:49 0° 212° (SSW) 3,315 ? -11.7°
Reaches altitude 10° 18:40:30 10° 200° (SSW) 2,479 ? -12.2°
Maximum altitude 18:45:30 28° 143° (SE) 1,673 ? -13.2°
Enters shadow 18:49:19 17° 98° (E) 2,287 ? -13.9°
Drops below altitude 10° 18:51:06 10° 87° (E) 2,794 - -14.2°
Sets 18:54:18 0° 77° (ENE) 3,814 - -14.9°
